Regional Weather Roundup
Issued by NWS

Home | Current Version | Previous Version | Text Only | Print | Product List | Glossary On
Versions: 1 2 3 4 5 6 7 8 9 10 11 12 13 14 15 16 17 18 19 20 21 22 23 24 25 26 27 28 29 30 31 32 33 34 35 36 37 38 39 40 41 42 43 44 45 46 47 48 49 50
000
ASUS43 KOAX 260510
RWRNE

WEATHER ROUNDUP FOR NEBRASKA
NATIONAL WEATHER SERVICE OMAHA NE
1100 PM CST SAT FEB 25 2017

NOTES: SATELLITE DATA IS BEING USED TO AUGMENT CLOUD COVER ABOVE
       12000 FEET.
       "FAIR" INDICATES FEW OR NO CLOUDS BELOW 12,000 FEET WITH NO
       SIGNIFICANT WEATHER AND/OR OBSTRUCTIONS TO VISIBILITY.

  * THESE STATIONS DO NOT REPORT WEATHER SUCH AS RAIN...SNOW OR FOG.

NEZ001>004-019>022-054>056-260600-
NEBRASKA PANHANDLE

CITY           SKY/WX    TMP DP  RH WIND       PRES   REMARKS
SCOTTSBLUFF    CLEAR     15   6  67 NW9       29.79R WCI   3
ALLIANCE       CLEAR      7   2  80 W8        29.76R WCI  -6
CHADRON        CLEAR     13   3  64 CALM      29.77R
KIMBALL        CLEAR     11   4  73 W9        29.79S WCI  -2
SIDNEY         CLEAR     18   7  62 W13       29.81S WCI   5
$$

NEZ057>060-069>072-079>082-260600-
SOUTHWEST NEBRASKA

CITY           SKY/WX    TMP DP  RH WIND       PRES   REMARKS
NORTH PLATTE   PTCLDY    21  14  74 CALM      29.85R
IMPERIAL       MOCLDY    31  18  58 SW9       29.85S WCI  23
LEXINGTON      CLOUDY    28  20  70 W6        29.87S WCI  22
MCCOOK         CLOUDY    26  17  68 SW6       29.89S WCI  19
OGALLALA       CLEAR     20  15  79 W8        29.84S WCI  11
$$

NEZ005>010-023>029-035>040-094-260600-
NORTH CENTRAL NEBRASKA

CITY           SKY/WX    TMP DP  RH WIND       PRES   REMARKS
VALENTINE      CLEAR     11   6  81 SW8       29.77S WCI  -1
AINSWORTH      CLEAR     17  12  82 SW9       29.77F WCI   5
BROKEN BOW     CLEAR     22  16  78 W6        29.82F WCI  14
O`NEILL        PTCLDY    22  17  83 SW7       29.81R WCI  13
ORD            CLEAR     24  16  71 SW10      29.82F WCI  14
THEDFORD       CLEAR     17  10  71 SW3       29.80S
$$

NEZ041-046>049-061>064-073>077-083>087-260600-
SOUTH CENTRAL NEBRASKA

CITY           SKY/WX    TMP DP  RH WIND       PRES   REMARKS
GRAND ISLAND   PTCLDY    26  21  81 SW7       29.88S WCI  18
AURORA         PTCLDY    26  23  86 W6        29.88S WCI  20
HASTINGS       CLOUDY    27  21  78 SW5       29.89S WCI  22
HEBRON         CLOUDY    32  24  71 S8        29.90F WCI  25
HOLDREGE       CLOUDY    30  16  56 W7        29.87F WCI  23
KEARNEY *      CLOUDY    30  18  59 W9        29.88S WCI  22
YORK           CLOUDY    28  25  86 SW6       29.88S WCI  22
$$

NEZ011>018-030>034-042>045-260600-
NORTHEAST NEBRASKA

CITY           SKY/WX    TMP DP  RH WIND       PRES   REMARKS
NORFOLK        CLOUDY    23  18  81 SW7       29.82F WCI  15
ALBION         PTCLDY    27  19  73 CALM      29.84S
BLAIR          CLOUDY    30  22  72 S9        29.87S WCI  22
FREMONT        CLOUDY    31  24  74 S7        29.87F WCI  24
TEKAMAH        PTCLDY    21  16  81 S3        29.88F
WAYNE          CLOUDY    20  17  89 SW6       29.83F WCI  12
$$

NEZ050>053-065>068-078-088>093-260600-
SOUTHEAST NEBRASKA

CITY           SKY/WX    TMP DP  RH WIND       PRES   REMARKS
LINCOLN        CLEAR     32  27  81 SW7       29.91S WCI  26
OMAHA EPPLEY   CLOUDY    30  20  66 SE8       29.90F WCI  22
BEATRICE       PTCLDY    33  20  59 S9        29.91F WCI  25
FALLS CITY     PTCLDY    35  17  47 S13       29.95F WCI  26
NEBRASKA CITY  PTCLDY    32  19  59 SW10      29.92F WCI  24
PLATTSMOUTH    PTCLDY    32  20  59 S12       29.90F WCI  23
$$

NEZ044-045-051>053-067-260600-
OMAHA AREA

CITY           SKY/WX    TMP DP  RH WIND       PRES   REMARKS
OMAHA EPPLEY   CLOUDY    30  20  66 SE8       29.90F WCI  22
BLAIR          CLOUDY    30  22  72 S9        29.87S WCI  22
FREMONT        CLOUDY    31  24  74 S7        29.87F WCI  24
MILLARD        MOCLDY    35  22  61 S5        29.90S WCI  30
OFFUTT AFB     PTCLDY    33  20  59 S10       29.90F WCI  25
PLATTSMOUTH    PTCLDY    32  20  59 S12       29.90F WCI  23
WAHOO          FAIR      28  21  76 SW7       29.89S WCI  20
$$




USA.gov is the U.S. government's official web portal to all federal, state and local government web resources and services.